Location: Ottawa
(45.4170°N, 75.7000°W)
Time: 05:48:48
(UTC-04:00)

ISS - Visible Passes

Search period start: 08 September 2024 00:00
Search period end: 18 September 2024 00:00
Orbit: 416 x 425 km, 51.6° (Epoch: 08 September)

Date Brightness Start Highest point End Pass type
(mag) Time Alt. Az. Time Alt. Az. Time Alt. Az.
08 Sep -0.8 04:08:42 11° SE 04:08:42 11° SE 04:08:47 10° SE visible
08 Sep -1.6 05:41:48 12° SW 05:41:48 12° SW 05:42:58 10° SSW visible
10 Sep -2.6 20:51:51 10° SSW 20:54:09 28° SSE 20:54:09 28° SSE visible
11 Sep -2.3 20:07:09 10° S 20:09:44 21° SE 20:11:36 14° E visible
11 Sep -1.9 21:43:02 10° WSW 21:44:46 27° WSW 21:44:46 27° WSW visible
12 Sep -3.9 20:58:18 10° WSW 21:01:41 85° SSE 21:02:27 51° ENE visible
13 Sep -3.7 20:14:11 10° SW 20:17:31 58° SE 20:20:24 13° ENE visible
13 Sep -1.6 21:51:30 10° W 21:53:36 28° WNW 21:53:36 28° WNW visible
14 Sep -2.7 21:07:41 10° W 21:10:58 44° NNW 21:11:55 34° NNE visible
15 Sep -3.1 20:24:25 10° WSW 20:27:47 56° NNW 20:30:37 14° NE visible
15 Sep -1.0 22:02:20 10° WNW 22:03:52 20° NW 22:03:52 20° NW visible
16 Sep -3.5 19:41:44 10° WSW 19:45:08 74° NNW 19:48:35 10° ENE visible
16 Sep -2.1 21:19:36 10° WNW 21:22:40 30° N 21:23:00 29° N visible
17 Sep -2.2 20:37:22 10° WNW 20:40:30 32° N 20:42:34 17° NE visible
17 Sep -0.5 22:15:11 10° NW 22:15:53 14° NW 22:15:53 14° NW visible
